SORAYA

Satellite information

Favourite Embed

Satellite Type and Status

PAYLOADIN ORBIT

Key statistics

Satellite SORAYA at a glance.

Uptime

637

Days in orbit

Revolutions

≈ 14.4

Per day

Orbit

LEO

Low Earth Orbit

Inclination

64.5

Latest

Satellite identification and parameters

Extended collection of information and parameters for SORAYA.

Object identification

Identified? True

Debris? False

Object name: SORAYA

International designator: 2024-015A

Object number (NORAD): 58817

Object ID (CCSDS): 58817

Country: IRAN (IRAN)

Current information (Y/N): Y

RCS size: MEDIUM

Orbital parameters

Period: 99.821 minutes

Inclination: 64.5155 deg

SMA: 7128.128 km

Apoapsis: 768.261 km

Periapsis: 731.726 km

RAAN: 64.3975 deg

Eccentricy: 0.00256275

Argument of periapsis: 230.358 deg

Mean anomaly: 129.5244 deg

Mean motion: 14.42578648 rev/day

Mean motion (dot): 0.00000323 rev/day2

B* drag term: 0.00012869828 1/REarth

Two-line elements (TLE)

Creation date: Oct. 18, 2025, 2:17 a.m.

Reference frame: TEME

Reference center: EARTH

Epoch: Oct. 17, 2025, 11:33 p.m. UTC

TLE line 0: 0 SORAYA

TLE line 1: 1 58817U 24015A 25290.98153631 .00000323 00000-0 12870-3 0 9994

TLE line 2: 2 58817 64.5155 64.3975 0025628 230.3580 129.5244 14.42578648 91832

Live tracking on map

Real-time ground track for satellite SORAYA.

In-orbit conjunctions

There are no conjunctions computed for SORAYA, at the moment. Check back to stay up to date, as we update our databases every day.

Go to all conjunctions

Associated space launch

Satellite of unknown purposes for the Iranian Space Organization, orbiting in an 750 km high LEO.

SORAYA was lifted into orbit during the mission ‘Qaem 100 | Soraya’, on board a Qaem 100 space rocket.

The launch took place on Jan. 20, 2024, 6:28 a.m. from Launch Platform.

For more information about the launch, click the button.

Launch to space Qaem 100 | Soraya
Qaem 100 | Soraya

Agency: N/A

Status: Launch Successful

Launch date: Jan. 20, 2024, 6:28 a.m. UTC

Rocket: Qaem 100

Launch pad: Launch Platform

Location: Shahrud Missile Test Site, Islamic Republic of Iran

...

Latest news about this satellite

News about space launch
Rocket Report: Iran reaches orbit; Chinese firm achieves impressive landing test

"Our investors’ continued support is a recognition of our 18 months of hard work."


Newsletter sign-up

Weekly statistics, charts and insights to help you stay on top of the space industry.